Madison, SD

4:49 PM CDT on April 30, 2017 (GMT -0500)
Madison Municipal

Weather History for KMDS - October, 2013

Change the Weather History Date:

Wednesday, October 2, 2013

  Actual Average Record
Temperature  
Mean Temperature 60 °F -  
Max Temperature 80 °F 70 °F 80 °F (2013)
Min Temperature 41 °F 40 °F 35 °F (2010)
Degree Days  
Heating Degree Days 4    
Growing Degree Days 10 (Base 50)    
Moisture  
Dew Point 46 °F    
Average Humidity 65    
Maximum Humidity 100    
Minimum Humidity 32    
Precipitation  
Precipitation 0.00 in - - ()
Sea Level Pressure  
Sea Level Pressure 29.90 in    
Wind  
Wind Speed 8 mph (SE)    
Max Wind Speed 24 mph    
Max Gust Speed 31 mph    
Visibility 10 miles    
Events Thunderstorm    
Averages and records for this station are not official NWS values.
T = Trace of Precipitation, MM = Missing Value Source: NWS Daily Summary

Daily Weather History Graph

Daily Weather History Graph

Search for Another Location

Airport or City:

Trip Planner

Search our weather history database for the weather conditions in past years. The results will help you decide how hot, cold, wet, or windy it might be!

Date:

Astronomy

Oct. 02, 2013 Rise Set
Actual Time 7:27 AM CDT 7:06 PM CDT
Civil Twilight 6:58 AM CDT 7:35 PM CDT
Nautical Twilight 6:25 AM CDT 8:09 PM CDT
Astronomical Twilight 5:51 AM CDT 8:42 PM CDT
Moon 4:57 AM CDT (10/2) 5:46 PM CDT (10/2)
Length of Visible Light 12h 36m
Length of Day
11h 39m
Waning Crescent, 6% of the Moon is Illuminated
Oct 2
Waning Crescent
Oct 4
New
Oct 11
First Quarter
Oct 18
Full
Oct 26
Last Quarter

Hourly Weather History & Observations

Time (CDT) Temp. Windchill Dew Point Humidity Pressure Visibility Wind Dir Wind Speed Gust Speed Precip Events Conditions
12:10 AM 46.4 °F - 37.4 °F 71% 30.01 in 10.0 mi Calm Calm - N/A   Clear
12:30 AM 46.4 °F 45.2 °F 37.4 °F 71% 30.01 in 10.0 mi ENE 3.5 mph - N/A   Clear
12:50 AM 44.6 °F 43.1 °F 37.4 °F 76% 30.01 in 10.0 mi ENE 3.5 mph - N/A   Clear
1:10 AM 44.6 °F - 41.0 °F 87% 30.01 in 10.0 mi Calm Calm - N/A   Clear
1:30 AM 44.6 °F 43.1 °F 39.2 °F 81% 30.01 in 10.0 mi ENE 3.5 mph - N/A   Clear
1:50 AM 44.6 °F 43.1 °F 39.2 °F 81% 30.01 in 10.0 mi East 3.5 mph - N/A   Clear
2:10 AM 42.8 °F 41.1 °F 41.0 °F 93% 30.01 in 10.0 mi East 3.5 mph - N/A   Clear
2:30 AM 41.0 °F 38.0 °F 39.2 °F 93% 30.01 in 10.0 mi East 4.6 mph - N/A   Clear
2:50 AM 41.0 °F 37.1 °F 41.0 °F 100% 30.00 in 10.0 mi ESE 5.8 mph - N/A   Clear
3:10 AM 41.0 °F 39.0 °F 41.0 °F 100% 30.00 in 10.0 mi ESE 3.5 mph - N/A   Clear
3:30 AM 41.0 °F 38.0 °F 39.2 °F 93% 29.99 in 10.0 mi ESE 4.6 mph - N/A   Clear
3:50 AM 42.8 °F 40.1 °F 41.0 °F 93% 29.99 in 10.0 mi ESE 4.6 mph - N/A   Clear
4:10 AM 42.8 °F 40.1 °F 39.2 °F 87% 29.99 in 10.0 mi East 4.6 mph - N/A   Clear
4:30 AM 41.0 °F 37.1 °F 37.4 °F 87% 29.98 in 10.0 mi ESE 5.8 mph - N/A   Clear
4:50 AM 41.0 °F 36.4 °F 37.4 °F 87% 29.98 in 10.0 mi SE 6.9 mph - N/A   Clear
5:10 AM 46.4 °F 42.9 °F 33.8 °F 62% 29.98 in 10.0 mi SE 6.9 mph - N/A   Clear
5:30 AM 46.4 °F 42.9 °F 33.8 °F 62% 29.98 in 10.0 mi SE 6.9 mph - N/A   Clear
5:50 AM 46.4 °F 43.5 °F 32.0 °F 57% 29.98 in 10.0 mi SE 5.8 mph - N/A   Clear
6:10 AM 46.4 °F 42.9 °F 32.0 °F 57% 29.98 in 10.0 mi SE 6.9 mph - N/A   Clear
6:30 AM 48.2 °F - 33.8 °F 58% 29.98 in 10.0 mi SE 10.4 mph - N/A   Clear
6:50 AM 48.2 °F - 35.6 °F 62% 29.97 in 10.0 mi ESE 10.4 mph - N/A   Clear
7:10 AM 48.2 °F - 33.8 °F 58% 29.97 in 10.0 mi ESE 9.2 mph - N/A   Clear
7:30 AM 50.0 °F - 33.8 °F 54% 29.96 in 10.0 mi ESE 9.2 mph - N/A   Clear
7:50 AM 50.0 °F - 33.8 °F 54% 29.96 in 10.0 mi SE 10.4 mph - N/A   Clear
8:10 AM 51.8 °F - 33.8 °F 50% 29.96 in 10.0 mi SE 10.4 mph - N/A   Scattered Clouds
8:30 AM 53.6 °F - 33.8 °F 47% 29.95 in 10.0 mi SE 12.7 mph 16.1 mph N/A   Scattered Clouds
8:50 AM 55.4 °F - 33.8 °F 44% 29.95 in 10.0 mi SE 13.8 mph 20.7 mph N/A   Mostly Cloudy
9:10 AM 55.4 °F - 33.8 °F 44% 29.95 in 10.0 mi SE 16.1 mph 21.9 mph N/A   Scattered Clouds
9:30 AM 57.2 °F - 33.8 °F 41% 29.95 in 10.0 mi SE 13.8 mph 23.0 mph N/A   Mostly Cloudy
9:50 AM 59.0 °F - 33.8 °F 39% 29.95 in 10.0 mi SSE 17.3 mph 28.8 mph N/A   Mostly Cloudy
10:10 AM 60.8 °F - 33.8 °F 36% 29.94 in 10.0 mi SSE 17.3 mph 26.5 mph N/A   Mostly Cloudy
10:30 AM 62.6 °F - 32.0 °F 32% 29.94 in 10.0 mi SSE 18.4 mph 26.5 mph N/A   Scattered Clouds
10:50 AM 64.4 °F - 35.6 °F 34% 29.93 in 10.0 mi SE 18.4 mph 28.8 mph N/A   Scattered Clouds
11:10 AM 62.6 °F - 42.8 °F 48% 29.91 in 10.0 mi SSE 15.0 mph 26.5 mph N/A   Partly Cloudy
11:30 AM 64.4 °F - 39.2 °F 40% 29.90 in 10.0 mi SSE 16.1 mph 28.8 mph N/A   Partly Cloudy
11:50 AM 64.4 °F - 41.0 °F 42% 29.91 in 10.0 mi South 9.2 mph 23.0 mph N/A Thunderstorm Thunderstorm
12:10 PM 59.0 °F - 51.8 °F 77% 29.90 in 10.0 mi SSE 8.1 mph 21.9 mph N/A Thunderstorm Mostly Cloudy
12:30 PM 68.0 °F - 53.6 °F 60% 29.89 in 10.0 mi SSE 11.5 mph 16.1 mph N/A Thunderstorm Partly Cloudy
12:50 PM 71.6 °F - 50.0 °F 46% 29.88 in 10.0 mi SSE 18.4 mph 25.3 mph N/A   Clear
1:10 PM 73.4 °F - 53.6 °F 50% 29.86 in 10.0 mi SSE 20.7 mph 25.3 mph N/A   Clear
1:30 PM 73.4 °F - 53.6 °F 50% 29.85 in 10.0 mi SSE 20.7 mph 27.6 mph N/A   Scattered Clouds
1:50 PM 75.2 °F - 55.4 °F 50% 29.83 in 10.0 mi South 23.0 mph 28.8 mph N/A   Scattered Clouds
2:10 PM 77.0 °F - 55.4 °F 47% 29.82 in 10.0 mi South 21.9 mph 28.8 mph N/A   Clear
2:30 PM 78.8 °F - 57.2 °F 47% 29.81 in 10.0 mi South 20.7 mph 28.8 mph N/A   Clear
2:50 PM 78.8 °F - 57.2 °F 47% 29.80 in 10.0 mi South 20.7 mph 29.9 mph N/A   Partly Cloudy
3:10 PM 78.8 °F - 59.0 °F 51% 29.80 in 10.0 mi South 19.6 mph 29.9 mph N/A   Partly Cloudy
3:30 PM 78.8 °F - 59.0 °F 51% 29.80 in 10.0 mi SSW 20.7 mph 31.1 mph N/A   Scattered Clouds
3:50 PM 80.6 °F - 59.0 °F 48% 29.79 in 10.0 mi SSW 21.9 mph 28.8 mph N/A   Partly Cloudy
4:10 PM 80.6 °F - 59.0 °F 48% 29.79 in 10.0 mi SSW 24.2 mph 28.8 mph N/A   Scattered Clouds
4:30 PM 78.8 °F - 59.0 °F 51% 29.79 in 10.0 mi SSW 17.3 mph 25.3 mph N/A   Mostly Cloudy
4:50 PM 78.8 °F - 59.0 °F 51% 29.80 in 10.0 mi SW 18.4 mph 26.5 mph N/A   Scattered Clouds
5:10 PM 78.8 °F - 59.0 °F 51% 29.79 in 10.0 mi SSW 13.8 mph 21.9 mph N/A   Scattered Clouds
5:30 PM 77.0 °F - 59.0 °F 54% 29.79 in 10.0 mi SW 13.8 mph 23.0 mph N/A   Mostly Cloudy
5:50 PM 77.0 °F - 59.0 °F 54% 29.79 in 10.0 mi SW 10.4 mph - N/A   Mostly Cloudy
6:10 PM 77.0 °F - 59.0 °F 54% 29.79 in 10.0 mi West 12.7 mph 19.6 mph N/A   Mostly Cloudy
6:30 PM 77.0 °F - 59.0 °F 54% 29.79 in 10.0 mi WNW 11.5 mph - N/A Thunderstorm Partly Cloudy
6:50 PM 75.2 °F - 57.2 °F 53% 29.79 in 10.0 mi WNW 9.2 mph - N/A   Clear
7:10 PM 71.6 °F - 57.2 °F 60% 29.80 in 10.0 mi NW 6.9 mph - N/A   Clear
7:30 PM 68.0 °F - 57.2 °F 68% 29.82 in 10.0 mi NW 4.6 mph - N/A   Clear
7:50 PM 66.2 °F - 57.2 °F 73% 29.82 in 10.0 mi NW 5.8 mph - N/A   Mostly Cloudy
8:10 PM 68.0 °F - 57.2 °F 68% 29.83 in 10.0 mi Calm Calm - N/A   Overcast
8:30 PM 62.6 °F - 55.4 °F 77% 29.84 in 10.0 mi NNE 13.8 mph - N/A   Overcast
8:50 PM 57.2 °F - 50.0 °F 77% 29.85 in 10.0 mi NNE 13.8 mph 23.0 mph N/A   Scattered Clouds
9:10 PM 55.4 °F - 50.0 °F 82% 29.86 in 10.0 mi North 10.4 mph - N/A   Clear
9:30 PM 55.4 °F - 51.8 °F 88% 29.85 in 10.0 mi NNE 11.5 mph - N/A   Clear
9:50 PM 53.6 °F - 53.6 °F 100% 29.86 in 10.0 mi NE 6.9 mph - N/A   Clear
10:10 PM 53.6 °F - 53.6 °F 100% 29.87 in 10.0 mi NNE 6.9 mph - N/A   Clear
10:30 PM 51.8 °F - 51.8 °F 100% 29.87 in 10.0 mi NNE 9.2 mph - N/A   Clear
10:50 PM 51.8 °F - 51.8 °F 100% 29.86 in 10.0 mi NE 10.4 mph - N/A   Clear
11:10 PM 51.8 °F - 51.8 °F 100% 29.85 in 10.0 mi NE 10.4 mph - N/A   Clear
11:30 PM 50.0 °F - 50.0 °F 100% 29.85 in 10.0 mi NE 9.2 mph - N/A   Clear
11:50 PM 50.0 °F - 50.0 °F 100% 29.86 in 10.0 mi NNE 11.5 mph - N/A   Clear